Lancaster, OH

7:32 PM EDT on April 25, 2017 (GMT -0400)
Fairfield County

Weather History for KLHQ - September, 2011

Change the Weather History Date:

Monday, September 12, 2011

  Actual Average Record
Temperature  
Mean Temperature 68 °F -  
Max Temperature 80 °F 77 °F 96 °F (1983)
Min Temperature 55 °F 52 °F 37 °F (1969)
Cooling Degree Days 2    
Growing Degree Days 18 (Base 50)    
Moisture  
Dew Point 58 °F    
Average Humidity 89    
Maximum Humidity 100    
Minimum Humidity 52    
Precipitation  
Precipitation 0.36 in - - ()
Sea Level Pressure  
Sea Level Pressure 30.05 in    
Wind  
Wind Speed 1 mph (SSW)    
Max Wind Speed 10 mph    
Max Gust Speed -    
Visibility 4 miles    
Events Fog    
Averages and records for this station are not official NWS values.
T = Trace of Precipitation, MM = Missing Value Source: NWS Daily Summary

Daily Weather History Graph

Daily Weather History Graph

Search for Another Location

Airport or City:

Trip Planner

Search our weather history database for the weather conditions in past years. The results will help you decide how hot, cold, wet, or windy it might be!

Date:

Astronomy

Sep. 12, 2011 Rise Set
Actual Time 7:08 AM EDT 7:44 PM EDT
Civil Twilight 6:41 AM EDT 8:11 PM EDT
Nautical Twilight 6:09 AM EDT 8:43 PM EDT
Astronomical Twilight 5:36 AM EDT 9:16 PM EDT
Moon 7:32 PM EDT (9/12) 7:24 AM EDT (9/12)
Length of Visible Light 13h 30m
Length of Day
12h 35m
Full, 100% of the Moon is Illuminated
Sep 12
Full
Sep 20
Last Quarter
Sep 27
New
Oct 3
First Quarter
Oct 11
Full

Hourly Weather History & Observations

Time (EDT) Temp. Heat Index Dew Point Humidity Pressure Visibility Wind Dir Wind Speed Gust Speed Precip Events Conditions
12:53 AM 60.1 °F - 57.9 °F 93% 30.05 in 9.0 mi SSE 3.5 mph - 0.06 in   Clear
1:37 AM 57.2 °F - 57.2 °F 100% 30.06 in 1.5 mi Calm Calm - 0.03 in   Clear
1:39 AM 57.2 °F - 57.2 °F 100% 30.06 in 0.8 mi Calm Calm - 0.03 in   Clear
1:53 AM 57.0 °F - 55.9 °F 96% 30.05 in 0.8 mi Calm Calm - 0.04 in   Clear
2:11 AM 57.2 °F - 55.4 °F 94% 30.06 in 1.2 mi Calm Calm - 0.01 in   Clear
2:32 AM 57.2 °F - 55.4 °F 94% 30.05 in 0.8 mi Calm Calm - 0.02 in   Clear
2:53 AM 57.0 °F - 55.0 °F 93% 30.04 in 0.5 mi Calm Calm - 0.04 in Fog Fog
3:42 AM 55.4 °F - 55.4 °F 100% 30.05 in 1.0 mi Calm Calm - 0.02 in   Clear
3:50 AM 57.2 °F - 55.4 °F 94% 30.05 in 2.0 mi Calm Calm - 0.03 in   Clear
3:53 AM 55.9 °F - 55.0 °F 97% 30.04 in 3.0 mi Calm Calm - 0.03 in   Clear
4:32 AM 57.2 °F - 55.4 °F 94% 30.06 in 2.5 mi Calm Calm - 0.01 in   Clear
4:49 AM 57.2 °F - 55.4 °F 94% 30.06 in 2.0 mi Calm Calm - 0.02 in   Clear
4:53 AM 57.0 °F - 55.9 °F 96% 30.06 in 3.0 mi Calm Calm - 0.02 in   Clear
5:06 AM 57.2 °F - 57.2 °F 100% 30.07 in 2.0 mi Calm Calm - 0.01 in   Clear
5:09 AM 57.2 °F - 55.4 °F 94% 30.07 in 1.0 mi Calm Calm - 0.01 in   Clear
5:16 AM 57.2 °F - 55.4 °F 94% 30.06 in 0.8 mi Calm Calm - 0.01 in   Clear
5:32 AM 57.2 °F - 55.4 °F 94% 30.07 in 1.2 mi Calm Calm - 0.02 in   Clear
5:38 AM 55.4 °F - 55.4 °F 100% 30.07 in 2.5 mi Calm Calm - 0.02 in   Clear
5:53 AM 57.0 °F - 55.0 °F 93% 30.06 in 2.0 mi Calm Calm - 0.02 in   Clear
6:32 AM 55.4 °F - 53.6 °F 94% 30.07 in 1.0 mi Calm Calm - 0.02 in   Clear
6:39 AM 55.4 °F - 55.4 °F 100% 30.07 in 0.5 mi Calm Calm - 0.02 in Fog Fog
6:50 AM 55.4 °F - 53.6 °F 94% 30.07 in 1.2 mi ESE 3.5 mph - 0.02 in   Clear
6:53 AM 55.9 °F - 54.0 °F 93% 30.07 in 1.8 mi ESE 3.5 mph - 0.02 in   Clear
7:11 AM 57.2 °F - 55.4 °F 94% 30.08 in 1.2 mi ESE 3.5 mph - 0.01 in   Clear
7:53 AM 57.9 °F - 57.0 °F 97% 30.08 in 1.8 mi Calm Calm - 0.02 in   Clear
8:08 AM 60.8 °F - 59.0 °F 94% 30.09 in 2.0 mi Calm Calm - 0.01 in   Clear
8:15 AM 60.8 °F - 60.8 °F 100% 30.10 in 2.5 mi Calm Calm - 0.01 in   Clear
8:27 AM 62.6 °F - 60.8 °F 94% 30.10 in 3.0 mi Calm Calm - 0.01 in   Clear
8:53 AM 63.0 °F - 62.1 °F 97% 30.09 in 5.0 mi Calm Calm - 0.02 in   Clear
9:53 AM 64.9 °F - 62.1 °F 90% 30.10 in 8.0 mi WSW 4.6 mph - 0.01 in   Clear
10:53 AM 68.0 °F - 64.0 °F 87% 30.10 in 9.0 mi SW 4.6 mph - 0.02 in   Partly Cloudy
12:53 PM 78.1 °F - 64.0 °F 62% 30.07 in 10.0 mi WSW 5.8 mph - N/A   Partly Cloudy
1:53 PM 78.1 °F - 62.1 °F 58% 30.05 in 10.0 mi Variable 6.9 mph - 0.02 in   Partly Cloudy
2:53 PM 80.1 °F 81.5 °F 63.0 °F 56% 30.03 in 10.0 mi West 5.8 mph - 0.01 in   Scattered Clouds
4:53 PM 77.0 °F - 63.0 °F 62% 29.99 in 10.0 mi West 5.8 mph - 0.01 in   Partly Cloudy
5:53 PM 79.0 °F - 60.1 °F 52% 29.99 in 10.0 mi SW 10.4 mph - N/A   Mostly Cloudy
6:53 PM 75.9 °F - 63.0 °F 64% 29.99 in 10.0 mi WSW 4.6 mph - 0.01 in   Clear
7:53 PM 70.0 °F - 63.0 °F 78% 30.00 in 10.0 mi Calm Calm - N/A   Clear
8:53 PM 68.0 °F - 62.1 °F 81% 30.00 in 10.0 mi Calm Calm - 0.01 in   Clear
9:53 PM 66.0 °F - 61.0 °F 84% 30.01 in 10.0 mi SSE 3.5 mph - N/A   Clear
11:53 PM 64.9 °F - 60.1 °F 84% 29.99 in 10.0 mi SSE 3.5 mph - N/A   Clear